Location: Rounton
(54.4000°N, 1.3500°W)
Time: 01:07:10
(UTC+00:00)

Altair - Pass Details

Date: 02 December 2021
Orbit: 1501 x 1683 km, 47.2° (Epoch: 19 January)

Event Time Altitude Azimuth Distance (km) Brightness Sun altitude
Rises 22:19:34 0° 283° (WNW) 4,660 10.4 -53.0°
Reaches altitude 10° 22:23:10 10° 272° (W) 3,664 9.7 -53.4°
Enters shadow 22:24:10 13° 268° (W) 3,418 9.5 -53.4°
